This demonstration page uses our WeatherBlox Daily Observations layout. Learn more.

Hourly Observations for August 4, 2015

Temp ( °F °C ) Dew Point ( °F °C ) Humidity (%) Winds ( mph kmh ) Pressure ( in mb ) Visibility ( mi km ) Precip ( " mm )
12:15 am 00:15 Clear 70 21 66 19 88 88 E 7 11 29.88 1012 10 16.09344 0 0
12:35 am 00:35 Clear 70 21 66 19 88 88 ESE 9 15 29.88 1012 10 16.09344 0 0
12:55 am 00:55 Clear 70 21 66 19 88 88 E 8 13 29.88 1012 10 16.09344 0 0
1:15 am 01:15 Clear 68 20 66 19 94 94 E 9 15 29.88 1012 10 16.09344 0 0
1:35 am 01:35 Clear 68 20 66 19 94 94 E 7 11 29.88 1012 10 16.09344 0 0
1:55 am 01:55 Clear 68 20 66 19 94 94 E 7 11 29.88 1012 10 16.09344 0 0
2:15 am 02:15 Clear 68 20 66 19 94 94 E 7 11 29.88 1012 10 16.09344 0 0
2:35 am 02:35 Clear 68 20 66 19 94 94 ESE 7 11 29.88 1012 7 11.265408 0 0
2:55 am 02:55 Clear 68 20 66 19 94 94 ESE 7 11 29.85 1011 7 11.265408 0 0
3:15 am 03:15 Mostly Cloudy 68 20 66 19 94 94 ESE 5 7 29.85 1011 7 11.265408 0 0
3:35 am 03:35 Cloudy with Mist and Fog 68 20 66 19 94 94 SSE 6 9 29.85 1011 5 8.04672 0 0
3:55 am 03:55 Cloudy with Mist and Fog 68 20 66 19 94 94 SE 5 7 29.83 1010 5 8.04672 0 0
4:15 am 04:15 Cloudy with Mist and Fog 68 20 66 19 94 94 SE 6 9 29.83 1010 1 1.609344 0 0
4:35 am 04:35 Cloudy with Fog 68 20 66 19 94 94 SE 5 7 29.83 1010 0.5 0.804672 0 0
4:55 am 04:55 Cloudy with Fog 68 20 66 19 94 94 SE 6 9 29.83 1010 0.5 0.804672 0 0
5:15 am 05:15 Cloudy with Fog 68 20 66 19 94 94 SE 7 11 29.83 1010 0.5 0.804672 0 0
5:35 am 05:35 Cloudy with Mist and Fog 66 19 66 19 100 100 ESE 6 9 29.83 1010 0.75 1.207008 0 0
5:55 am 05:55 Cloudy with Fog 66 19 66 19 100 100 ESE 5 7 29.85 1011 0.5 0.804672 0 0
6:15 am 06:15 Cloudy with Fog 66 19 66 19 100 100 E 7 11 29.85 1011 0.5 0.804672 0 0
6:35 am 06:35 Cloudy with Fog 68 20 66 19 94 94 E 7 11 29.88 1012 0.5 0.804672 0 0
6:55 am 06:55 Cloudy with Fog 68 20 66 19 94 94 ENE 8 13 29.88 1012 0.5 0.804672 0 0
7:15 am 07:15 Cloudy with Light Drizzle 68 20 66 19 94 94 ENE 9 15 29.91 1013 0.25 0.402336 0 0
7:35 am 07:35 Cloudy with Fog 68 20 68 20 100 100 E 10 17 29.91 1013 0.5 0.804672 0 0
7:55 am 07:55 Cloudy with Fog 68 20 68 20 100 100 E 10 17 29.91 1013 0.5 0.804672 0 0
8:15 am 08:15 Cloudy with Mist and Fog 68 20 68 20 100 100 E 10 17 29.91 1013 0.75 1.207008 0 0
8:35 am 08:35 Cloudy with Mist and Fog 68 20 68 20 100 100 E 10 17 29.91 1013 1 1.609344 0 0
8:55 am 08:55 Cloudy with Light Rain 68 20 66 19 94 94 ENE 13 20 29.91 1013 0.25 0.402336 0 0
9:15 am 09:15 Cloudy with Fog 68 20 66 19 94 94 E 13 20 29.91 1013 0.25 0.402336 0 0
9:35 am 09:35 Cloudy with Fog 68 20 66 19 94 94 E 14 22 29.91 1013 0.25 0.402336 0 0
9:55 am 09:55 Cloudy with Mist and Fog 68 20 66 19 94 94 E 16 26 29.91 1013 1 1.609344 0 0
10:15 am 10:15 Cloudy with Mist and Fog 68 20 66 19 94 94 E 15 24 29.91 1013 1 1.609344 0 0
10:35 am 10:35 Cloudy with Mist and Fog 68 20 66 19 94 94 E 20 31 29.91 1013 1.75 2.816352 0 0
10:55 am 10:55 Cloudy 68 20 66 19 94 94 E 18 30 29.88 1012 7 11.265408 0 0
11:15 am 11:15 Cloudy 72 22 66 19 83 83 E 22 35 29.88 1012 10 16.09344 0 0
11:35 am 11:35 Mostly Cloudy 75 24 64 18 69 69 E 20 31 29.85 1011 10 16.09344 0 0
11:55 am 11:55 Partly Cloudy 75 24 63 17 65 65 E 18 30 29.85 1011 10 16.09344 0 0
12:15 pm 12:15 Sunny 77 25 63 17 61 61 ESE 18 30 29.85 1011 10 16.09344 0 0
12:35 pm 12:35 Sunny 77 25 61 16 57 57 ESE 21 33 29.85 1011 10 16.09344 0 0
12:55 pm 12:55 Sunny 77 25 63 17 61 61 ESE 16 26 29.85 1011 10 16.09344 0 0
1:15 pm 13:15 Sunny 77 25 64 18 65 65 ESE 16 26 29.83 1010 10 16.09344 0 0
1:35 pm 13:35 Sunny 77 25 66 19 69 69 ESE 12 19 29.85 1011 10 16.09344 0 0
1:55 pm 13:55 Partly Cloudy 77 25 66 19 69 69 E 16 26 29.83 1010 10 16.09344 0 0
2:15 pm 14:15 Mostly Cloudy 77 25 66 19 69 69 ESE 12 19 29.83 1010 10 16.09344 0 0
2:35 pm 14:35 Partly Cloudy 77 25 66 19 69 69 ESE 12 19 29.83 1010 10 16.09344 0 0
2:55 pm 14:55 Sunny with Nearby Thunderstorms 79 26 68 20 70 70 ESE 13 20 29.83 1010 10 16.09344 0 0
3:15 pm 15:15 Mostly Cloudy 79 26 68 20 70 70 ESE 12 19 29.83 1010 10 16.09344 0 0
3:35 pm 15:35 Mostly Cloudy with Nearby Thunderstorms 79 26 68 20 70 70 ESE 9 15 29.83 1010 10 16.09344 0 0
3:55 pm 15:55 Partly Cloudy with Nearby Thunderstorms 77 25 68 20 74 74 SE 13 20 29.83 1010 10 16.09344 0 0
4:15 pm 16:15 Mostly Cloudy with Light Thunderstorms 72 22 63 17 73 73 W 13 20 29.91 1013 10 16.09344 0 0
4:35 pm 16:35 Cloudy with Heavy Thunderstorms 63 17 59 15 88 88 W 21 33 29.94 1014 3 4.828032 0.2 5.08
4:55 pm 16:55 Cloudy with Heavy Thunderstorms 64 18 61 16 88 88 WSW 15 24 29.94 1014 4 6.437376 0.42 10.668
5:15 pm 17:15 Cloudy with Thunderstorms 64 18 61 16 88 88 SSW 12 19 29.91 1013 10 16.09344 0.08 2.032
5:35 pm 17:35 Cloudy with Nearby Thunderstorms 64 18 61 16 88 88 S 14 22 29.91 1013 10 16.09344 0.09 2.286
5:55 pm 17:55 Cloudy 64 18 61 16 88 88 SSW 5 7 29.91 1013 10 16.09344 0.11 2.794
6:15 pm 18:15 Cloudy with Nearby Thunderstorms 64 18 61 16 88 88 SE 7 11 29.88 1012 5 8.04672 0.04 1.016
6:35 pm 18:35 Cloudy with Light Rain 63 17 61 16 94 94 ESE 12 19 29.85 1011 10 16.09344 0.08 2.032
6:55 pm 18:55 Cloudy with Light Rain 64 18 61 16 88 88 SW 13 20 29.88 1012 10 16.09344 0.1 2.54
7:15 pm 19:15 Cloudy with Light Rain 64 18 61 16 88 88 SE 6 9 29.88 1012 10 16.09344 0.01 0.254
7:35 pm 19:35 Mostly Cloudy with Light Rain 64 18 63 17 94 94 E 8 13 29.88 1012 10 16.09344 0.01 0.254
7:55 pm 19:55 Partly Cloudy 64 18 63 17 94 94 SSE 3 6 29.91 1013 10 16.09344 0.01 0.254
8:15 pm 20:15 Mostly Cloudy 64 18 63 17 94 94 Calm 29.91 1013 10 16.09344 0 0
8:35 pm 20:35 Partly Cloudy 64 18 63 17 94 94 Calm 29.91 1013 10 16.09344 0 0
8:55 pm 20:55 Partly Cloudy 64 18 63 17 94 94 Calm 29.91 1013 10 16.09344 0 0
9:15 pm 21:15 Clear 63 17 61 16 94 94 Calm 29.91 1013 10 16.09344 0 0
9:35 pm 21:35 Clear 63 17 61 16 94 94 Calm 29.91 1013 10 16.09344 0 0
9:55 pm 21:55 Clear 63 17 63 17 100 100 Calm 29.91 1013 10 16.09344 0 0
10:15 pm 22:15 Clear 63 17 61 16 94 94 N 3 6 29.94 1014 10 16.09344 0 0
10:35 pm 22:35 Clear 63 17 61 16 94 94 Calm 29.94 1014 10 16.09344 0 0
10:55 pm 22:55 Partly Cloudy 63 17 61 16 94 94 NNE 9 15 29.94 1014 7 11.265408 0 0
11:15 pm 23:15 Mostly Cloudy 63 17 61 16 94 94 NE 5 7 29.97 1015 7 11.265408 0 0
11:35 pm 23:35 Mostly Cloudy 63 17 63 17 100 100 NE 7 11 29.94 1014 7 11.265408 0 0
11:55 pm 23:55 Partly Cloudy with Rain 63 17 63 17 100 100 E 3 6 29.94 1014 7 11.265408 0 0

Powered by AerisWeather